Weather Roundup
Issued by NWS

Home | Current Version | Previous Version | Text Only | Print | Product List | Glossary On
Versions: 1 2 3 4 5 6 7 8 9 10 11 12 13 14 15 16 17 18 19 20 21 22 23 24 25 26 27 28 29 30 31 32 33 34 35 36 37 38 39 40 41 42 43 44 45 46 47 48 49 50
000
NZUS93 KARX 251610
HRRWXR

CURRENT HOURLY OBSERVATIONS ACROSS
MUCH OF THE UPPER MISSISSIPPI VALLEY
NATIONAL WEATHER SERVICE LA CROSSE WI
1100 AM CDT SAT APR 25 2015


...SOUTHEAST MINNESOTA...


CITY           SKY/WX    TMP DP  RH WIND       PRES   REMARKS
ROCHESTER      CLOUDY    46  38  73 E17       29.82R
ROCHESTER/MAYO CLOUDY    45  38  76 E9G21     29.82S
WINONA         NOT AVBL
AUSTIN         PTSUNNY   48  39  71 E16G24    29.78R
ALBERT LEA     PTSUNNY   48  41  76 E17       29.77S
DODGE CENTER   PTSUNNY   48  41  76 E20       29.81R
PRESTON        CLOUDY    46  37  70 E14G21    29.80S
OWATONNA       PTSUNNY   48  39  71 E18       29.81S
FARIBAULT      PTSUNNY   48  41  76 NE10      29.83R
$$

...ELSEWHERE IN MINNESOTA...


CITY           SKY/WX    TMP DP  RH WIND       PRES   REMARKS
MINNEAPOLIS    MOSUNNY   50  36  58 E13       29.86S
INTNL FALLS    SUNNY     47  22  37 E12       29.98S
DULUTH         CLOUDY    37  25  61 E12G22    29.97R WCI  29
RED WING       MOSUNNY   52  36  54 E10       29.85R
REDWOOD FALLS  CLOUDY    48  38  68 E13G22    29.81R
MANKATO        CLOUDY    48  37  66 E12       29.81S
WORTHINGTON    CLOUDY    46  37  71 NE16G23   29.76R
FAIRMONT       CLOUDY    46  32  57 E16       29.77S
$$

...SOUTHWEST WISCONSIN...


CITY           SKY/WX    TMP DP  RH WIND       PRES   REMARKS
LA CROSSE      CLOUDY    48  38  68 NE10      29.85R
PRAIRIE DU CHI CLOUDY    46  35  65 NE9       29.78S
BOSCOBEL       CLOUDY    48  37  65 E12G20    29.81S
LONE ROCK      CLOUDY    46  37  71 E14       29.82S
PLATTEVILLE    CLOUDY    46  39  76 NE18      29.77R
FORT MC COY    CLOUDY    46  35  66 E12G17    29.87R
CAMP DOUGLAS   PTSUNNY   46  39  76 E13       29.86R
VIROQUA        CLOUDY    44  38  79 E13       29.82S
WIS DELLS      CLOUDY    44  35  69 E9        29.84S
$$

...ELSEWHERE IN WISCONSIN...


CITY           SKY/WX    TMP DP  RH WIND       PRES   REMARKS
MILWAUKEE      CLOUDY    41  35  79 NE15      29.85F
MADISON        CLOUDY    46  37  71 NE15      29.82S
GREEN BAY      PTSUNNY   47  23  38 NE18      29.93F
EAU CLAIRE     MOSUNNY   51  28  41 NE14      29.87S
BLACK RVR FLS  CLOUDY    47  32  56 E13       29.87R
MEDFORD        PTSUNNY   49  16  27 E16       29.89F
WAUSAU         PTSUNNY   49  18  29 E16G26    29.90S
WIS RAPIDS     CLOUDY    48  21  34 E17G24    29.90R
MARSHFIELD     CLOUDY    47  22  37 E14       29.88F
RICE LAKE      SUNNY     51  19  28 E14G21    29.91S
$$

...NORTHEAST IOWA...


CITY           SKY/WX    TMP DP  RH WIND       PRES   REMARKS
DECORAH        CLOUDY    46  37  71 E16G23    29.77S
MASON CITY     CLOUDY    48  39  71 E23       29.76S
CHARLES CITY   CLOUDY    48  41  76 E20       29.75F
OELWEIN        CLOUDY    45  37  76 E20       29.73R
$$

...ELSEWHERE IN IOWA...


CITY           SKY/WX    TMP DP  RH WIND       PRES   REMARKS
DES MOINES     CLOUDY    47  43  86 E15G23    29.63R
IOWA CITY      LGT RAIN  45  43  93 NE18G26   29.64F FOG
FORT DODGE     CLOUDY    46  39  76 E21G26    29.70S
$$

...NORTHERN ILLINOIS...


CITY           SKY/WX    TMP DP  RH WIND       PRES   REMARKS
CHICAGO-OHARE  LGT RAIN  43  39  86 E12       29.78R
CHICAGO-MIDWAY LGT RAIN  46  42  86 E16       29.76R
MOLINE         LGT RAIN  46  43  89 NE18G26   29.68F FOG
ROCKFORD       CLOUDY    46  37  71 NE15      29.78F
PEORIA         LGT RAIN  49  45  86 E17G25    29.64F FOG
$$

NOTE: "FAIR" INDICATES FEW OR NO CLOUDS BELOW 12,000 FEET WITH NO
SIGNIFICANT WEATHER AND/OR OBSTRUCTIONS TO VISIBILITY. WIND
SPEEDS ARE IN MILES-PER-HOUR.



USA.gov is the U.S. government's official web portal to all federal, state and local government web resources and services.